Weather History for KFDR - February, 2014

Change the Weather History Date:

Thursday, February 6, 2014

  Actual Average (KLTS) Record (KLTS)
Temperature  
Mean Temperature 14 °F -  
Max Temperature 19 °F 52 °F 66 °F (2015)
Min Temperature 10 °F 28 °F 8 °F (2014)
Degree Days  
Heating Degree Days 50    
Moisture  
Dew Point 6 °F    
Average Humidity 69    
Maximum Humidity 79    
Minimum Humidity 62    
Precipitation  
Precipitation 0.00 in - - ()
Sea Level Pressure  
Sea Level Pressure 30.53 in    
Wind  
Wind Speed 14 mph (NNE)    
Max Wind Speed 22 mph    
Max Gust Speed -    
Visibility 8 miles    
Events Snow    
Averages and records for this station are not official NWS values.
T = Trace of Precipitation, MM = Missing Value Source: NWS Daily Summary

Daily Weather History Graph

Daily Weather History Graph

Search for Another Location

Airport or City:

Trip Planner

Search our weather history database for the weather conditions in past years. The results will help you decide how hot, cold, wet, or windy it might be!

Date:

Astronomy

Feb. 06, 2014 Rise Set
Actual Time 7:29 AM CST 6:10 PM CST
Civil Twilight 7:03 AM CST 6:37 PM CST
Nautical Twilight 6:33 AM CST 7:06 PM CST
Astronomical Twilight 6:04 AM CST 7:36 PM CST
Moon 11:44 AM CST (2/6) 12:46 AM CST (2/6)
Length of Visible Light 11h 33m
Length of Day
10h 41m
Waxing Crescent, 49% of the Moon is Illuminated
Feb 6
Waxing Crescent
Feb 6
First Quarter
Feb 14
Full
Feb 22
Last Quarter
Mar 1
New

Hourly Weather History & Observations

Time (CST) Temp. Windchill Dew Point Humidity Pressure Visibility Wind Dir Wind Speed Gust Speed Precip Events Conditions
12:53 AM 12.0 °F -6.0 °F 5.0 °F 73% 30.62 in 7.0 mi North 19.6 mph - N/A   Overcast
1:13 AM 12.2 °F -6.3 °F 5.0 °F 73% 30.56 in 2.5 mi North 20.7 mph - 0.00 in Snow Light Snow
1:21 AM 12.2 °F -6.3 °F 5.0 °F 73% 30.56 in 3.0 mi North 20.7 mph - 0.00 in Snow Light Snow
1:28 AM 10.4 °F -9.1 °F 3.2 °F 73% 30.56 in 2.0 mi NNE 21.9 mph - 0.00 in Snow Light Snow
1:35 AM 10.4 °F -8.2 °F 5.0 °F 79% 30.55 in 1.8 mi NNE 19.6 mph - 0.00 in Snow Light Snow
1:43 AM 10.4 °F -8.2 °F 5.0 °F 79% 30.55 in 2.5 mi North 19.6 mph - 0.00 in Snow Light Snow
1:53 AM 10.9 °F -6.5 °F 3.9 °F 73% 30.61 in 3.0 mi North 17.3 mph - 0.00 in Snow Light Snow
2:07 AM 10.4 °F -8.2 °F 3.2 °F 73% 30.56 in 3.0 mi North 19.6 mph - 0.00 in Snow Light Snow
2:25 AM 10.4 °F -6.6 °F 3.2 °F 73% 30.57 in 2.5 mi North 16.1 mph - 0.00 in Snow Light Snow
2:53 AM 10.9 °F -6.5 °F 5.0 °F 77% 30.62 in 3.0 mi North 17.3 mph - 0.00 in Snow Light Snow
2:58 AM 10.4 °F -6.6 °F 3.2 °F 73% 30.56 in 5.0 mi North 16.1 mph - 0.00 in Snow Light Snow
3:53 AM 10.9 °F -5.4 °F 3.9 °F 73% 30.61 in 6.0 mi North 15.0 mph - 0.00 in Snow Light Snow
4:53 AM 10.9 °F -5.4 °F 3.0 °F 70% 30.59 in 9.0 mi NNE 15.0 mph - 0.00 in   Overcast
5:53 AM 10.9 °F -0.8 °F 3.0 °F 70% 30.61 in 9.0 mi NNE 8.1 mph - 0.00 in Snow Light Snow
6:53 AM 10.9 °F -1.8 °F 3.0 °F 70% 30.61 in 8.0 mi NNE 9.2 mph - 0.00 in Snow Light Snow
7:53 AM 10.9 °F -1.8 °F 3.0 °F 70% 30.62 in 10.0 mi North 9.2 mph - 0.00 in   Overcast
8:53 AM 10.9 °F -0.8 °F 3.0 °F 70% 30.62 in 10.0 mi North 8.1 mph - N/A   Overcast
9:53 AM 12.0 °F 0.5 °F 3.9 °F 70% 30.63 in 10.0 mi North 8.1 mph - N/A   Overcast
10:53 AM 12.9 °F 5.2 °F 3.0 °F 65% 30.62 in 10.0 mi ENE 4.6 mph - N/A   Overcast
11:53 AM 16.0 °F 7.4 °F 5.0 °F 62% 30.60 in 10.0 mi North 5.8 mph - N/A   Overcast
12:30 PM 15.8 °F 7.2 °F 5.0 °F 62% 30.51 in 10.0 mi NNE 5.8 mph - N/A   Overcast
12:53 PM 16.0 °F - 6.1 °F 65% 30.56 in 10.0 mi Calm Calm - N/A   Overcast
1:26 PM 17.6 °F 9.3 °F 6.8 °F 63% 30.47 in 10.0 mi Variable 5.8 mph - N/A   Overcast
1:53 PM 17.1 °F 11.7 °F 7.0 °F 65% 30.51 in 10.0 mi NE 3.5 mph - N/A   Overcast
2:46 PM 19.4 °F 10.4 °F 8.6 °F 63% 30.42 in 10.0 mi North 6.9 mph - N/A   Overcast
2:53 PM 19.0 °F - 8.1 °F 62% 30.48 in 10.0 mi Calm Calm - N/A   Overcast
3:15 PM 19.4 °F 14.3 °F 8.6 °F 63% 30.42 in 10.0 mi North 3.5 mph - N/A   Overcast
3:53 PM 19.0 °F 13.9 °F 9.0 °F 65% 30.48 in 10.0 mi North 3.5 mph - N/A   Overcast
4:53 PM 19.0 °F 12.3 °F 8.1 °F 62% 30.45 in 10.0 mi NNE 4.6 mph - N/A   Overcast
5:06 PM 19.4 °F 14.3 °F 8.6 °F 63% 30.39 in 10.0 mi Variable 3.5 mph - N/A   Overcast
5:53 PM 19.0 °F 12.3 °F 9.0 °F 65% 30.44 in 10.0 mi NNE 4.6 mph - N/A   Overcast
6:53 PM 19.0 °F 11.1 °F 10.0 °F 68% 30.45 in 10.0 mi NNE 5.8 mph - N/A   Overcast
7:53 PM 18.0 °F 6.9 °F 9.0 °F 68% 30.45 in 10.0 mi East 9.2 mph - N/A   Overcast
8:13 PM 17.6 °F 5.0 °F 8.6 °F 68% 30.38 in 10.0 mi ENE 11.5 mph - N/A   Overcast
8:53 PM 18.0 °F 7.7 °F 9.0 °F 68% 30.45 in 10.0 mi East 8.1 mph - N/A   Overcast
9:53 PM 18.0 °F 6.9 °F 9.0 °F 68% 30.45 in 10.0 mi East 9.2 mph - N/A   Overcast
10:53 PM 18.0 °F 7.7 °F 9.0 °F 68% 30.43 in 10.0 mi East 8.1 mph - N/A   Overcast
11:53 PM 17.1 °F 8.7 °F 9.0 °F 71% 30.42 in 10.0 mi ENE 5.8 mph - N/A   Overcast